Year,Month,Day,Hour,Minute,Value (Times are PST for temperature in C)
2007,09,21,00,00,10.00
2007,09,21,00,01,10.00
2007,09,21,00,02,10.00
2007,09,21,00,03,10.00
2007,09,21,00,04,9.90
2007,09,21,00,05,9.90
2007,09,21,00,06,9.90
2007,09,21,00,07,9.80
2007,09,21,00,08,9.80
2007,09,21,00,09,9.80
2007,09,21,00,10,9.80
2007,09,21,00,11,9.80
2007,09,21,00,12,9.70
2007,09,21,00,13,9.70
2007,09,21,00,14,9.70
2007,09,21,00,15,9.70
2007,09,21,00,16,9.60
2007,09,21,00,17,9.60
2007,09,21,00,18,9.60
2007,09,21,00,19,9.60
2007,09,21,00,20,9.60
2007,09,21,00,21,9.60
2007,09,21,00,22,9.60
2007,09,21,00,23,9.60
2007,09,21,00,24,9.60
2007,09,21,00,25,9.60
2007,09,21,00,26,9.50
2007,09,21,00,27,9.50
2007,09,21,00,28,9.50
2007,09,21,00,29,9.50
2007,09,21,00,30,9.50
2007,09,21,00,31,9.40
2007,09,21,00,32,9.40
2007,09,21,00,33,9.40
2007,09,21,00,34,9.40
2007,09,21,00,35,9.40
2007,09,21,00,36,9.30
2007,09,21,00,37,9.30
2007,09,21,00,38,9.30
2007,09,21,00,39,9.30
2007,09,21,00,40,9.30
2007,09,21,00,41,9.30
2007,09,21,00,42,9.30
2007,09,21,00,43,9.20
2007,09,21,00,44,9.20
2007,09,21,00,45,9.20
2007,09,21,00,46,9.20
2007,09,21,00,47,9.20
2007,09,21,00,48,9.10
2007,09,21,00,49,9.10
2007,09,21,00,50,9.10
2007,09,21,00,51,9.00
2007,09,21,00,52,9.00
2007,09,21,00,53,9.00
2007,09,21,00,54,8.90
2007,09,21,00,55,8.90
2007,09,21,00,56,8.90
2007,09,21,00,57,8.90
2007,09,21,00,58,8.90
2007,09,21,00,59,8.90
2007,09,21,01,00,8.90
2007,09,21,01,01,8.90
2007,09,21,01,02,8.80
2007,09,21,01,03,8.80
2007,09,21,01,04,8.80
2007,09,21,01,05,8.80
2007,09,21,01,06,8.80
2007,09,21,01,07,8.80
2007,09,21,01,08,8.80
2007,09,21,01,09,8.80
2007,09,21,01,10,8.80
2007,09,21,01,11,8.80
2007,09,21,01,12,8.70
2007,09,21,01,13,8.70
2007,09,21,01,14,8.70
2007,09,21,01,15,8.70
2007,09,21,01,16,8.60
2007,09,21,01,17,8.60
2007,09,21,01,18,8.60
2007,09,21,01,19,8.60
2007,09,21,01,20,8.60
2007,09,21,01,21,8.50
2007,09,21,01,22,8.50
2007,09,21,01,23,8.50
2007,09,21,01,24,8.50
2007,09,21,01,25,8.50
2007,09,21,01,26,8.50
2007,09,21,01,27,8.50
2007,09,21,01,28,8.50
2007,09,21,01,29,8.50
2007,09,21,01,30,8.40
2007,09,21,01,31,8.40
2007,09,21,01,32,8.40
2007,09,21,01,33,8.40
2007,09,21,01,34,8.40
2007,09,21,01,35,8.40
2007,09,21,01,36,8.40
2007,09,21,01,37,8.40
2007,09,21,01,38,8.40
2007,09,21,01,39,8.40
2007,09,21,01,40,8.40
2007,09,21,01,41,8.40
2007,09,21,01,42,8.40
2007,09,21,01,43,8.30
2007,09,21,01,44,8.30
2007,09,21,01,45,8.30
2007,09,21,01,46,8.30
2007,09,21,01,47,8.20
2007,09,21,01,48,8.20
2007,09,21,01,49,8.20
2007,09,21,01,50,8.20
2007,09,21,01,51,8.20
2007,09,21,01,52,8.20
2007,09,21,01,53,8.20
2007,09,21,01,54,8.20
2007,09,21,01,55,8.20
2007,09,21,01,56,8.20
2007,09,21,01,57,8.20
2007,09,21,01,58,8.20
2007,09,21,01,59,8.20
2007,09,21,02,00,8.20
2007,09,21,02,01,8.20
2007,09,21,02,02,8.20
2007,09,21,02,03,8.20
2007,09,21,02,04,8.20
2007,09,21,02,05,8.20
2007,09,21,02,06,8.20
2007,09,21,02,07,8.20
2007,09,21,02,08,8.20
2007,09,21,02,09,8.20
2007,09,21,02,10,8.10
2007,09,21,02,11,8.10
2007,09,21,02,12,8.10
2007,09,21,02,13,8.10
2007,09,21,02,14,8.00
2007,09,21,02,15,8.00
2007,09,21,02,16,7.90
2007,09,21,02,17,7.90
2007,09,21,02,18,7.90
2007,09,21,02,19,7.90
2007,09,21,02,20,7.80
2007,09,21,02,21,7.80
2007,09,21,02,22,7.80
2007,09,21,02,23,7.80
2007,09,21,02,24,7.70
2007,09,21,02,25,7.70
2007,09,21,02,26,7.70
2007,09,21,02,27,7.70
2007,09,21,02,28,7.60
2007,09,21,02,29,7.60
2007,09,21,02,30,7.60
2007,09,21,02,31,7.60
2007,09,21,02,32,7.60
2007,09,21,02,33,7.60
2007,09,21,02,34,7.60
2007,09,21,02,35,7.50
2007,09,21,02,36,7.50
2007,09,21,02,37,7.50
2007,09,21,02,38,7.40
2007,09,21,02,39,7.40
2007,09,21,02,40,7.40
2007,09,21,02,41,7.40
2007,09,21,02,42,7.40
2007,09,21,02,43,7.40
2007,09,21,02,44,7.40
2007,09,21,02,45,7.40
2007,09,21,02,46,7.40
2007,09,21,02,47,7.30
2007,09,21,02,48,7.30
2007,09,21,02,49,7.30
2007,09,21,02,50,7.30
2007,09,21,02,51,7.30
2007,09,21,02,52,7.30
2007,09,21,02,53,7.30
2007,09,21,02,54,7.30
2007,09,21,02,55,7.30
2007,09,21,02,56,7.20
2007,09,21,02,57,7.20
2007,09,21,02,58,7.20
2007,09,21,02,59,7.20
2007,09,21,03,00,7.20
2007,09,21,03,01,7.20
2007,09,21,03,02,7.30
2007,09,21,03,03,7.30
2007,09,21,03,04,7.30
2007,09,21,03,05,7.30
2007,09,21,03,06,7.30
2007,09,21,03,07,7.20
2007,09,21,03,08,7.20
2007,09,21,03,09,7.20
2007,09,21,03,10,7.20
2007,09,21,03,11,7.20
2007,09,21,03,12,7.20
2007,09,21,03,13,7.20
2007,09,21,03,14,7.20
2007,09,21,03,15,7.20
2007,09,21,03,16,7.20
2007,09,21,03,17,7.20
2007,09,21,03,18,7.20
2007,09,21,03,19,7.20
2007,09,21,03,20,7.10
2007,09,21,03,21,7.10
2007,09,21,03,22,7.10
2007,09,21,03,23,7.00
2007,09,21,03,24,7.10
2007,09,21,03,25,7.10
2007,09,21,03,26,7.10
2007,09,21,03,27,7.10
2007,09,21,03,28,7.00
2007,09,21,03,29,7.00
2007,09,21,03,30,7.00
2007,09,21,03,31,7.00
2007,09,21,03,32,7.00
2007,09,21,03,33,7.00
2007,09,21,03,34,6.90
2007,09,21,03,35,6.90
2007,09,21,03,36,6.90
2007,09,21,03,37,6.90
2007,09,21,03,38,6.90
2007,09,21,03,39,6.90
2007,09,21,03,40,6.90
2007,09,21,03,41,6.90
2007,09,21,03,42,6.90
2007,09,21,03,43,6.90
2007,09,21,03,44,6.90
2007,09,21,03,45,6.90
2007,09,21,03,46,6.90
2007,09,21,03,47,6.90
2007,09,21,03,48,6.90
2007,09,21,03,49,6.90
2007,09,21,03,50,6.80
2007,09,21,03,51,6.80
2007,09,21,03,52,6.80
2007,09,21,03,53,6.80
2007,09,21,03,54,6.80
2007,09,21,03,55,6.80
2007,09,21,03,56,6.80
2007,09,21,03,57,6.80
2007,09,21,03,58,6.70
2007,09,21,03,59,6.70
2007,09,21,04,00,6.70
2007,09,21,04,01,6.70
2007,09,21,04,02,6.70
2007,09,21,04,03,6.70
2007,09,21,04,04,6.70
2007,09,21,04,05,6.70
2007,09,21,04,06,6.60
2007,09,21,04,07,6.60
2007,09,21,04,08,6.60
2007,09,21,04,09,6.60
2007,09,21,04,10,6.60
2007,09,21,04,11,6.60
2007,09,21,04,12,6.60
2007,09,21,04,13,6.60
2007,09,21,04,14,6.60
2007,09,21,04,15,6.60
2007,09,21,04,16,6.60
2007,09,21,04,17,6.60
2007,09,21,04,18,6.60
2007,09,21,04,19,6.60
2007,09,21,04,20,6.60
2007,09,21,04,21,6.60
2007,09,21,04,22,6.60
2007,09,21,04,23,6.60
2007,09,21,04,24,6.50
2007,09,21,04,25,6.50
2007,09,21,04,26,6.50
2007,09,21,04,27,6.50
2007,09,21,04,28,6.50
2007,09,21,04,29,6.60
2007,09,21,04,30,6.60
2007,09,21,04,31,6.70
2007,09,21,04,32,6.70
2007,09,21,04,33,6.70
2007,09,21,04,34,6.70
2007,09,21,04,35,6.70
2007,09,21,04,36,6.70
2007,09,21,04,37,6.70
2007,09,21,04,38,6.70
2007,09,21,04,39,6.60
2007,09,21,04,40,6.60
2007,09,21,04,41,6.60
2007,09,21,04,42,6.50
2007,09,21,04,43,6.50
2007,09,21,04,44,6.40
2007,09,21,04,45,6.40
2007,09,21,04,46,6.40
2007,09,21,04,47,6.40
2007,09,21,04,48,6.40
2007,09,21,04,49,6.40
2007,09,21,04,50,6.40
2007,09,21,04,51,6.40
2007,09,21,04,52,6.40
2007,09,21,04,53,6.40
2007,09,21,04,54,6.50
2007,09,21,04,55,6.50
2007,09,21,04,56,6.50
2007,09,21,04,57,6.60
2007,09,21,04,58,6.60
2007,09,21,04,59,6.60
2007,09,21,05,00,6.60
2007,09,21,05,01,6.60
2007,09,21,05,02,6.60
2007,09,21,05,03,6.60
2007,09,21,05,04,6.60
2007,09,21,05,05,6.60
2007,09,21,05,06,6.60
2007,09,21,05,07,6.50
2007,09,21,05,08,6.50
2007,09,21,05,09,6.50
2007,09,21,05,10,6.40
2007,09,21,05,11,6.40
2007,09,21,05,12,6.40
2007,09,21,05,13,6.40
2007,09,21,05,14,6.40
2007,09,21,05,15,6.50
2007,09,21,05,16,6.50
2007,09,21,05,17,6.50
2007,09,21,05,18,6.50
2007,09,21,05,19,6.50
2007,09,21,05,20,6.50
2007,09,21,05,21,6.40
2007,09,21,05,22,6.40
2007,09,21,05,23,6.40
2007,09,21,05,24,6.40
2007,09,21,05,25,6.40
2007,09,21,05,26,6.40
2007,09,21,05,27,6.40
2007,09,21,05,28,6.40
2007,09,21,05,29,6.40
2007,09,21,05,30,6.40
2007,09,21,05,31,6.40
2007,09,21,05,32,6.40
2007,09,21,05,33,6.40
2007,09,21,05,34,6.30
2007,09,21,05,35,6.30
2007,09,21,05,36,6.30
2007,09,21,05,37,6.30
2007,09,21,05,38,6.30
2007,09,21,05,39,6.30
2007,09,21,05,40,6.30
2007,09,21,05,41,6.20
2007,09,21,05,42,6.20
2007,09,21,05,43,6.20
2007,09,21,05,44,6.20
2007,09,21,05,45,6.20
2007,09,21,05,46,6.20
2007,09,21,05,47,6.20
2007,09,21,05,48,6.20
2007,09,21,05,49,6.20
2007,09,21,05,50,6.20
2007,09,21,05,51,6.20
2007,09,21,05,52,6.20
2007,09,21,05,53,6.20
2007,09,21,05,54,6.20
2007,09,21,05,55,6.20
2007,09,21,05,56,6.10
2007,09,21,05,57,6.10
2007,09,21,05,58,6.10
2007,09,21,05,59,6.10
2007,09,21,06,00,6.10
2007,09,21,06,01,6.10
2007,09,21,06,02,6.10
2007,09,21,06,03,6.00
2007,09,21,06,04,6.00
2007,09,21,06,05,6.00
2007,09,21,06,06,6.00
2007,09,21,06,07,6.00
2007,09,21,06,08,6.00
2007,09,21,06,09,6.00
2007,09,21,06,10,6.10
2007,09,21,06,11,6.10
2007,09,21,06,12,6.10
2007,09,21,06,13,6.10
2007,09,21,06,14,6.10
2007,09,21,06,15,6.10
2007,09,21,06,16,6.10
2007,09,21,06,17,6.10
2007,09,21,06,18,6.10
2007,09,21,06,19,6.10
2007,09,21,06,20,6.10
2007,09,21,06,21,6.10
2007,09,21,06,22,6.10
2007,09,21,06,23,6.10
2007,09,21,06,24,6.10
2007,09,21,06,25,6.10
2007,09,21,06,26,6.10
2007,09,21,06,27,6.10
2007,09,21,06,28,6.10
2007,09,21,06,29,6.10
2007,09,21,06,30,6.10
2007,09,21,06,31,6.10
2007,09,21,06,32,6.00
2007,09,21,06,33,6.00
2007,09,21,06,34,6.00
2007,09,21,06,35,5.90
2007,09,21,06,36,6.00
2007,09,21,06,37,6.00
2007,09,21,06,38,6.00
2007,09,21,06,39,6.10
2007,09,21,06,40,6.10
2007,09,21,06,41,6.10
2007,09,21,06,42,6.10
2007,09,21,06,43,6.10
2007,09,21,06,44,6.10
2007,09,21,06,45,6.10
2007,09,21,06,46,6.10
2007,09,21,06,47,6.10
2007,09,21,06,48,6.10
2007,09,21,06,49,6.20
2007,09,21,06,50,6.20
2007,09,21,06,51,6.20
2007,09,21,06,52,6.30
2007,09,21,06,53,6.30
2007,09,21,06,54,6.30
2007,09,21,06,55,6.30
2007,09,21,06,56,6.30
2007,09,21,06,57,6.30
2007,09,21,06,58,6.30
2007,09,21,06,59,6.40
2007,09,21,07,00,6.40
2007,09,21,07,01,6.40
2007,09,21,07,02,6.40
2007,09,21,07,03,6.40
2007,09,21,07,04,6.40
2007,09,21,07,05,6.40
2007,09,21,07,06,6.50
2007,09,21,07,07,6.50
2007,09,21,07,08,6.50
2007,09,21,07,09,6.50
2007,09,21,07,10,6.60
2007,09,21,07,11,6.60
2007,09,21,07,12,6.60
2007,09,21,07,13,6.60
2007,09,21,07,14,6.70
2007,09,21,07,15,6.70
2007,09,21,07,16,6.70
2007,09,21,07,17,6.70
2007,09,21,07,18,6.70
2007,09,21,07,19,6.80
2007,09,21,07,20,6.80
2007,09,21,07,21,6.80
2007,09,21,07,22,6.80
2007,09,21,07,23,6.80
2007,09,21,07,24,6.80
2007,09,21,07,25,6.90
2007,09,21,07,26,6.90
2007,09,21,07,27,6.90
2007,09,21,07,28,6.90
2007,09,21,07,29,7.00
2007,09,21,07,30,7.00
2007,09,21,07,31,7.10
2007,09,21,07,32,7.10
2007,09,21,07,33,7.10
2007,09,21,07,34,7.10
2007,09,21,07,35,7.20
2007,09,21,07,36,7.20
2007,09,21,07,37,7.20
2007,09,21,07,38,7.20
2007,09,21,07,39,7.30
2007,09,21,07,40,7.30
2007,09,21,07,41,7.30
2007,09,21,07,42,7.40
2007,09,21,07,43,7.40
2007,09,21,07,44,7.40
2007,09,21,07,45,7.40
2007,09,21,07,46,7.40
2007,09,21,07,47,7.40
2007,09,21,07,48,7.50
2007,09,21,07,49,7.50
2007,09,21,07,50,7.50
2007,09,21,07,51,7.50
2007,09,21,07,52,7.50
2007,09,21,07,53,7.60
2007,09,21,07,54,7.60
2007,09,21,07,55,7.60
2007,09,21,07,56,7.60
2007,09,21,07,57,7.60
2007,09,21,07,58,7.70
2007,09,21,07,59,7.70
2007,09,21,08,00,7.70
2007,09,21,08,01,7.80
2007,09,21,08,02,7.80
2007,09,21,08,03,7.80
2007,09,21,08,04,7.90
2007,09,21,08,05,7.90
2007,09,21,08,06,7.90
2007,09,21,08,07,8.00
2007,09,21,08,08,8.00
2007,09,21,08,09,8.00
2007,09,21,08,10,8.00
2007,09,21,08,11,8.10
2007,09,21,08,12,8.10
2007,09,21,08,13,8.10
2007,09,21,08,14,8.10
2007,09,21,08,15,8.10
2007,09,21,08,16,8.10
2007,09,21,08,17,8.10
2007,09,21,08,18,8.10
2007,09,21,08,19,8.10
2007,09,21,08,20,8.20
2007,09,21,08,21,8.20
2007,09,21,08,22,8.20
2007,09,21,08,23,8.20
2007,09,21,08,24,8.30
2007,09,21,08,25,8.30
2007,09,21,08,26,8.30
2007,09,21,08,27,8.30
2007,09,21,08,28,8.40
2007,09,21,08,29,8.40
2007,09,21,08,30,8.50
2007,09,21,08,31,8.50
2007,09,21,08,32,8.60
2007,09,21,08,33,8.60
2007,09,21,08,34,8.70
2007,09,21,08,35,8.70
2007,09,21,08,36,8.80
2007,09,21,08,37,8.90
2007,09,21,08,38,9.00
2007,09,21,08,39,9.00
2007,09,21,08,40,9.10
2007,09,21,08,41,9.20
2007,09,21,08,42,9.20
2007,09,21,08,43,9.20
2007,09,21,08,44,9.30
2007,09,21,08,45,9.30
2007,09,21,08,46,9.30
2007,09,21,08,47,9.40
2007,09,21,08,48,9.40
2007,09,21,08,49,9.40
2007,09,21,08,50,9.50
2007,09,21,08,51,9.60
2007,09,21,08,52,9.60
2007,09,21,08,53,9.60
2007,09,21,08,54,9.70
2007,09,21,08,55,9.70
2007,09,21,08,56,9.80
2007,09,21,08,57,9.80
2007,09,21,08,58,9.90
2007,09,21,08,59,9.90
2007,09,21,09,00,10.00
2007,09,21,09,01,10.00
2007,09,21,09,02,10.10
2007,09,21,09,03,10.00
2007,09,21,09,04,10.00
2007,09,21,09,05,10.00
2007,09,21,09,06,10.10
2007,09,21,09,07,10.10
2007,09,21,09,08,10.10
2007,09,21,09,09,10.20
2007,09,21,09,10,10.20
2007,09,21,09,11,10.20
2007,09,21,09,12,10.20
2007,09,21,09,13,10.20
2007,09,21,09,14,10.20
2007,09,21,09,15,10.20
2007,09,21,09,16,10.20
2007,09,21,09,17,10.20
2007,09,21,09,18,10.30
2007,09,21,09,19,10.30
2007,09,21,09,20,10.30
2007,09,21,09,21,10.40
2007,09,21,09,22,10.40
2007,09,21,09,23,10.50
2007,09,21,09,24,10.50
2007,09,21,09,25,10.60
2007,09,21,09,26,10.60
2007,09,21,09,27,10.70
2007,09,21,09,28,10.70
2007,09,21,09,29,10.80
2007,09,21,09,30,10.80
2007,09,21,09,31,10.90
2007,09,21,09,32,11.00
2007,09,21,09,33,11.10
2007,09,21,09,34,11.20
2007,09,21,09,35,11.30
2007,09,21,09,36,11.30
2007,09,21,09,37,11.50
2007,09,21,09,38,11.50
2007,09,21,09,39,11.60
2007,09,21,09,40,11.70
2007,09,21,09,41,11.70
2007,09,21,09,42,11.80
2007,09,21,09,43,11.80
2007,09,21,09,44,11.90
2007,09,21,09,45,11.90
2007,09,21,09,46,11.90
2007,09,21,09,47,11.90
2007,09,21,09,48,11.90
2007,09,21,09,49,11.90
2007,09,21,09,50,11.90
2007,09,21,09,51,11.90
2007,09,21,09,52,11.90
2007,09,21,09,53,12.00
2007,09,21,09,54,12.00
2007,09,21,09,55,12.00
2007,09,21,09,56,12.10
2007,09,21,09,57,12.10
2007,09,21,09,58,12.10
2007,09,21,09,59,12.20
2007,09,21,10,00,12.20
2007,09,21,10,01,12.20
2007,09,21,10,02,12.20
2007,09,21,10,03,12.20
2007,09,21,10,04,12.20
2007,09,21,10,05,12.20
2007,09,21,10,06,12.20
2007,09,21,10,07,12.20
2007,09,21,10,08,12.30
2007,09,21,10,09,12.30
2007,09,21,10,10,12.30
2007,09,21,10,11,12.30
2007,09,21,10,12,12.40
2007,09,21,10,13,12.40
2007,09,21,10,14,12.40
2007,09,21,10,15,12.40
2007,09,21,10,16,12.40
2007,09,21,10,17,12.40
2007,09,21,10,18,12.40
2007,09,21,10,19,12.40
2007,09,21,10,20,12.40
2007,09,21,10,21,12.40
2007,09,21,10,22,12.40
2007,09,21,10,23,12.40
2007,09,21,10,24,12.40
2007,09,21,10,25,12.50
2007,09,21,10,26,12.50
2007,09,21,10,27,12.50
2007,09,21,10,28,12.60
2007,09,21,10,29,12.60
2007,09,21,10,30,12.70
2007,09,21,10,31,12.70
2007,09,21,10,32,12.70
2007,09,21,10,33,12.80
2007,09,21,10,34,12.80
2007,09,21,10,35,12.80
2007,09,21,10,36,12.90
2007,09,21,10,37,12.90
2007,09,21,10,38,13.00
2007,09,21,10,39,13.00
2007,09,21,10,40,13.00
2007,09,21,10,41,13.10
2007,09,21,10,42,13.20
2007,09,21,10,43,13.30
2007,09,21,10,44,13.30
2007,09,21,10,45,13.40
2007,09,21,10,46,13.40
2007,09,21,10,47,13.50
2007,09,21,10,48,13.60
2007,09,21,10,49,13.70
2007,09,21,10,50,13.70
2007,09,21,10,51,13.80
2007,09,21,10,52,13.90
2007,09,21,10,53,14.00
2007,09,21,10,54,14.00
2007,09,21,10,55,14.10
2007,09,21,10,56,14.20
2007,09,21,10,57,14.20
2007,09,21,10,58,14.30
2007,09,21,10,59,14.30
2007,09,21,11,00,14.40
2007,09,21,11,01,14.50
2007,09,21,11,02,14.60
2007,09,21,11,03,14.70
2007,09,21,11,04,14.70
2007,09,21,11,05,14.80
2007,09,21,11,06,14.80
2007,09,21,11,07,14.80
2007,09,21,11,08,14.80
2007,09,21,11,09,14.80
2007,09,21,11,10,14.90
2007,09,21,11,11,15.00
2007,09,21,11,12,15.00
2007,09,21,11,13,15.00
2007,09,21,11,14,15.00
2007,09,21,11,15,15.00
2007,09,21,11,16,15.00
2007,09,21,11,17,15.00
2007,09,21,11,18,15.00
2007,09,21,11,19,15.00
2007,09,21,11,20,15.00
2007,09,21,11,21,15.00
2007,09,21,11,22,15.00
2007,09,21,11,23,15.10
2007,09,21,11,24,15.20
2007,09,21,11,25,15.20
2007,09,21,11,26,15.30
2007,09,21,11,27,15.30
2007,09,21,11,28,15.20
2007,09,21,11,29,15.20
2007,09,21,11,30,15.30
2007,09,21,11,31,15.20
2007,09,21,11,32,15.20
2007,09,21,11,33,15.20
2007,09,21,11,34,15.30
2007,09,21,11,35,15.30
2007,09,21,11,36,15.20
2007,09,21,11,37,15.10
2007,09,21,11,38,15.10
2007,09,21,11,39,15.10
2007,09,21,11,40,15.20
2007,09,21,11,41,15.00
2007,09,21,11,42,15.00
2007,09,21,11,43,15.00
2007,09,21,11,44,14.80
2007,09,21,11,45,14.70
2007,09,21,11,46,14.60
2007,09,21,11,47,14.60
2007,09,21,11,48,14.60
2007,09,21,11,49,14.60
2007,09,21,11,50,14.50
2007,09,21,11,51,14.40
2007,09,21,11,52,14.40
2007,09,21,11,53,14.30
2007,09,21,11,54,14.30
2007,09,21,11,55,14.30
2007,09,21,11,56,14.30
2007,09,21,11,57,14.20
2007,09,21,11,58,14.20
2007,09,21,11,59,14.20
2007,09,21,12,00,14.20
2007,09,21,12,01,14.20
2007,09,21,12,02,14.20
2007,09,21,12,03,14.20
2007,09,21,12,04,14.30
2007,09,21,12,05,14.30
2007,09,21,12,06,14.30
2007,09,21,12,07,14.30
2007,09,21,12,08,14.30
2007,09,21,12,09,14.20
2007,09,21,12,10,14.00
2007,09,21,12,11,13.90
2007,09,21,12,12,13.80
2007,09,21,12,13,13.80
2007,09,21,12,14,13.90
2007,09,21,12,15,13.90
2007,09,21,12,16,13.80
2007,09,21,12,17,13.90
2007,09,21,12,18,13.90
2007,09,21,12,19,13.90
2007,09,21,12,20,13.90
2007,09,21,12,21,14.00
2007,09,21,12,22,14.00
2007,09,21,12,23,14.00
2007,09,21,12,24,14.10
2007,09,21,12,25,14.20
2007,09,21,12,26,14.10
2007,09,21,12,27,14.00
2007,09,21,12,28,14.00
2007,09,21,12,29,13.90
2007,09,21,12,30,14.00
2007,09,21,12,31,14.00
2007,09,21,12,32,14.10
2007,09,21,12,33,14.20
2007,09,21,12,34,14.30
2007,09,21,12,35,14.30
2007,09,21,12,36,14.40
2007,09,21,12,37,14.40
2007,09,21,12,38,14.60
2007,09,21,12,39,14.60
2007,09,21,12,40,14.70
2007,09,21,12,41,14.70
2007,09,21,12,42,14.70
2007,09,21,12,43,14.60
2007,09,21,12,44,14.60
2007,09,21,12,45,14.60
2007,09,21,12,46,14.50
2007,09,21,12,47,14.40
2007,09,21,12,48,14.30
2007,09,21,12,49,14.30
2007,09,21,12,50,14.40
2007,09,21,12,51,14.50
2007,09,21,12,52,14.50
2007,09,21,12,53,14.60
2007,09,21,12,54,14.60
2007,09,21,12,55,14.70
2007,09,21,12,56,14.70
2007,09,21,12,57,14.60
2007,09,21,12,58,14.60
2007,09,21,12,59,14.60
2007,09,21,13,00,14.50
2007,09,21,13,01,14.50
2007,09,21,13,02,14.60
2007,09,21,13,03,14.60
2007,09,21,13,04,14.60
2007,09,21,13,05,14.60
2007,09,21,13,06,14.70
2007,09,21,13,07,14.70
2007,09,21,13,08,14.80
2007,09,21,13,09,15.00
2007,09,21,13,10,15.00
2007,09,21,13,11,15.20
2007,09,21,13,12,15.40
2007,09,21,13,13,15.50
2007,09,21,13,14,15.60
2007,09,21,13,15,15.70
2007,09,21,13,16,15.80
2007,09,21,13,17,15.80
2007,09,21,13,18,15.90
2007,09,21,13,19,15.90
2007,09,21,13,20,16.00
2007,09,21,13,21,16.10
2007,09,21,13,22,16.10
2007,09,21,13,23,16.10
2007,09,21,13,24,16.20
2007,09,21,13,25,16.20
2007,09,21,13,26,16.20
2007,09,21,13,27,16.20
2007,09,21,13,28,16.20
2007,09,21,13,29,16.20
2007,09,21,13,30,16.20
2007,09,21,13,31,16.30
2007,09,21,13,32,16.30
2007,09,21,13,33,16.30
2007,09,21,13,34,16.30
2007,09,21,13,35,16.20
2007,09,21,13,36,16.20
2007,09,21,13,37,16.20
2007,09,21,13,38,16.30
2007,09,21,13,39,16.30
2007,09,21,13,40,16.30
2007,09,21,13,41,16.30
2007,09,21,13,42,16.30
2007,09,21,13,43,16.30
2007,09,21,13,44,16.40
2007,09,21,13,45,16.30
2007,09,21,13,46,16.40
2007,09,21,13,47,16.40
2007,09,21,13,48,16.40
2007,09,21,13,49,16.30
2007,09,21,13,50,16.30
2007,09,21,13,51,16.40
2007,09,21,13,52,16.40
2007,09,21,13,53,16.30
2007,09,21,13,54,16.30
2007,09,21,13,55,16.30
2007,09,21,13,56,16.30
2007,09,21,13,57,16.40
2007,09,21,13,58,16.40
2007,09,21,13,59,16.40
2007,09,21,14,00,16.40
2007,09,21,14,01,16.40
2007,09,21,14,02,16.40
2007,09,21,14,03,16.50
2007,09,21,14,04,16.40
2007,09,21,14,05,16.50
2007,09,21,14,06,16.50
2007,09,21,14,07,16.50
2007,09,21,14,08,16.40
2007,09,21,14,09,16.40
2007,09,21,14,10,16.40
2007,09,21,14,11,16.50
2007,09,21,14,12,16.50
2007,09,21,14,13,16.40
2007,09,21,14,14,16.40
2007,09,21,14,15,16.50
2007,09,21,14,16,16.50
2007,09,21,14,17,16.60
2007,09,21,14,18,16.60
2007,09,21,14,19,16.60
2007,09,21,14,20,16.60
2007,09,21,14,21,16.60
2007,09,21,14,22,16.70
2007,09,21,14,23,16.70
2007,09,21,14,24,16.70
2007,09,21,14,25,16.70
2007,09,21,14,26,16.70
2007,09,21,14,27,16.80
2007,09,21,14,28,16.70
2007,09,21,14,29,16.70
2007,09,21,14,30,16.70
2007,09,21,14,31,16.70
2007,09,21,14,32,16.70
2007,09,21,14,33,16.70
2007,09,21,14,34,16.70
2007,09,21,14,35,16.70
2007,09,21,14,36,16.70
2007,09,21,14,37,16.70
2007,09,21,14,38,16.70
2007,09,21,14,39,16.60
2007,09,21,14,40,16.60
2007,09,21,14,41,16.50
2007,09,21,14,42,16.50
2007,09,21,14,43,16.40
2007,09,21,14,44,16.40
2007,09,21,14,45,16.40
2007,09,21,14,46,16.40
2007,09,21,14,47,16.40
2007,09,21,14,48,16.40
2007,09,21,14,49,16.40
2007,09,21,14,50,16.40
2007,09,21,14,51,16.40
2007,09,21,14,52,16.40
2007,09,21,14,53,16.40
2007,09,21,14,54,16.40
2007,09,21,14,55,16.40
2007,09,21,14,56,16.40
2007,09,21,14,57,16.40
2007,09,21,14,58,16.40
2007,09,21,14,59,16.40
2007,09,21,15,00,16.40
2007,09,21,15,01,16.40
2007,09,21,15,02,16.40
2007,09,21,15,03,16.40
2007,09,21,15,04,16.40
2007,09,21,15,05,16.40
2007,09,21,15,06,16.30
2007,09,21,15,07,16.30
2007,09,21,15,08,16.30
2007,09,21,15,09,16.30
2007,09,21,15,10,16.30
2007,09,21,15,11,16.20
2007,09,21,15,12,16.20
2007,09,21,15,13,16.20
2007,09,21,15,14,16.10
2007,09,21,15,15,16.10
2007,09,21,15,16,16.00
2007,09,21,15,17,16.00
2007,09,21,15,18,16.00
2007,09,21,15,19,15.90
2007,09,21,15,20,15.90
2007,09,21,15,21,15.90
2007,09,21,15,22,15.90
2007,09,21,15,23,15.90
2007,09,21,15,24,15.90
2007,09,21,15,25,15.90
2007,09,21,15,26,15.90
2007,09,21,15,27,15.90
2007,09,21,15,28,15.80
2007,09,21,15,29,15.80
2007,09,21,15,30,15.80
2007,09,21,15,31,15.80
2007,09,21,15,32,15.80
2007,09,21,15,33,15.80
2007,09,21,15,34,15.80
2007,09,21,15,35,15.80
2007,09,21,15,36,15.80
2007,09,21,15,37,15.80
2007,09,21,15,38,15.80
2007,09,21,15,39,15.80
2007,09,21,15,40,15.80
2007,09,21,15,41,15.70
2007,09,21,15,42,15.70
2007,09,21,15,43,15.70
2007,09,21,15,44,15.70
2007,09,21,15,45,15.70
2007,09,21,15,46,15.70
2007,09,21,15,47,15.60
2007,09,21,15,48,15.60
2007,09,21,15,49,15.50
2007,09,21,15,50,15.50
2007,09,21,15,51,15.40
2007,09,21,15,52,15.40
2007,09,21,15,53,15.40
2007,09,21,15,54,15.30
2007,09,21,15,55,15.30
2007,09,21,15,56,15.20
2007,09,21,15,57,15.20
2007,09,21,15,58,15.20
2007,09,21,15,59,15.20
2007,09,21,16,00,15.20
2007,09,21,16,01,15.20
2007,09,21,16,02,15.20
2007,09,21,16,03,15.20
2007,09,21,16,04,15.20
2007,09,21,16,05,15.10
2007,09,21,16,06,15.10
2007,09,21,16,07,15.10
2007,09,21,16,08,15.10
2007,09,21,16,09,15.00
2007,09,21,16,10,15.00
2007,09,21,16,11,15.00
2007,09,21,16,12,15.00
2007,09,21,16,13,15.00
2007,09,21,16,14,15.00
2007,09,21,16,15,15.00
2007,09,21,16,16,15.00
2007,09,21,16,17,15.00
2007,09,21,16,18,15.00
2007,09,21,16,19,15.00
2007,09,21,16,20,15.00
2007,09,21,16,21,15.00
2007,09,21,16,22,15.00
2007,09,21,16,23,15.00
2007,09,21,16,24,14.90
2007,09,21,16,25,14.80
2007,09,21,16,26,14.80
2007,09,21,16,27,14.80
2007,09,21,16,28,14.70
2007,09,21,16,29,14.70
2007,09,21,16,30,14.60
2007,09,21,16,31,14.50
2007,09,21,16,32,14.40
2007,09,21,16,33,14.30
2007,09,21,16,34,14.30
2007,09,21,16,35,14.20
2007,09,21,16,36,14.10
2007,09,21,16,37,14.00
2007,09,21,16,38,13.90
2007,09,21,16,39,13.80
2007,09,21,16,40,13.80
2007,09,21,16,41,13.70
2007,09,21,16,42,13.70
2007,09,21,16,43,13.70
2007,09,21,16,44,13.60
2007,09,21,16,45,13.60
2007,09,21,16,46,13.60
2007,09,21,16,47,13.60
2007,09,21,16,48,13.60
2007,09,21,16,49,13.70
2007,09,21,16,50,13.70
2007,09,21,16,51,13.60
2007,09,21,16,52,13.50
2007,09,21,16,53,13.40
2007,09,21,16,54,13.30
2007,09,21,16,55,13.20
2007,09,21,16,56,13.10
2007,09,21,16,57,13.00
2007,09,21,16,58,12.90
2007,09,21,16,59,12.80
2007,09,21,17,00,12.70
2007,09,21,17,01,12.70
2007,09,21,17,02,12.60
2007,09,21,17,03,12.60
2007,09,21,17,04,12.60
2007,09,21,17,05,12.60
2007,09,21,17,06,12.60
2007,09,21,17,07,12.60
2007,09,21,17,08,12.50
2007,09,21,17,09,12.50
2007,09,21,17,10,12.50
2007,09,21,17,11,12.50
2007,09,21,17,12,12.40
2007,09,21,17,13,12.40
2007,09,21,17,14,12.40
2007,09,21,17,15,12.50
2007,09,21,17,16,12.50
2007,09,21,17,17,12.60
2007,09,21,17,18,12.60
2007,09,21,17,19,12.70
2007,09,21,17,20,12.70
2007,09,21,17,21,12.70
2007,09,21,17,22,12.70
2007,09,21,17,23,12.70
2007,09,21,17,24,12.60
2007,09,21,17,25,12.70
2007,09,21,17,26,12.70
2007,09,21,17,27,12.60
2007,09,21,17,28,12.70
2007,09,21,17,29,12.70
2007,09,21,17,30,12.70
2007,09,21,17,31,12.70
2007,09,21,17,32,12.70
2007,09,21,17,33,12.70
2007,09,21,17,34,12.70
2007,09,21,17,35,12.70
2007,09,21,17,36,12.70
2007,09,21,17,37,12.70
2007,09,21,17,38,12.70
2007,09,21,17,39,12.70
2007,09,21,17,40,12.60
2007,09,21,17,41,12.70
2007,09,21,17,42,12.70